Ijamsville, Maryland
Current Conditions -  °F | °C
As of 4:50 AM on Thursday 23 Oct 2014 (Local Time) from KFDK Reporting Station
Overcast Overcast  
Wind Chill: 55°   Ceiling: 3400
Heat Index: 55°   Visibility: 10mi
Dew Point: 43°   Wind: 12mph
Humidity: 63%   Direction: 340°NNW
Pressure: 29.93"   Gusts: 18mph
Location:  39.36°N, 77.32°W
Report Text: KFDK 230850Z AUTO 34010G16KT 10SM OVC034 13/06 A2993 RMK AO2 LTG DSNT E
Loading
Personal Weather Stations






























Interactive Weather Map
Tropical Storm Tracking
New forecast layout! Learn more

10-Day Weather Forecast

Advertisements
Track Severe Weather on mobile